カタログに戻る

FREGAT R/B

運用中HEO
NORAD 42720·ROCKET BODY·🇷🇺 Russia

打ち上げ May 25, 2017 から Plesetsk Cosmodrome

Loading…

次のパス (今後24時間)

TLE

最新Source: Space-Track

元期: Sep 9, 2026, 03:07 UTC

1 42720U 17027B   26252.13038866  .00001431  00000-0  00000-0 0  9993
2 42720  62.4581 221.5263 7053848 268.0068  17.2010  2.01920662 68529

AllMySatでFREGAT R/Bをリアルタイム追跡

Download on the App Store